Back to catalog

XINZHENGCHENG 01

AliveMilitaryPO
NORAD 68414·PAYLOAD·🇨🇳 China

Launched Mar 30, 2026 from Jiuquan Satellite Launch Center

Loading…

Next Passes (next 24 hours)

TLE

FreshSource: Space-Track

Epoch: Sep 13, 2026, 19:28 UTC

1 68414U 26066C   26256.81132835  .00000806  00000-0  82597-4 0  9994
2 68414  84.9708 171.3413 0024288 308.0360  51.8671 14.88771406 24915

Track XINZHENGCHENG 01 in real time with AllMySat

Download on the App Store